Location: Julian California
(33.0790°N, 116.6010°W)
Time: 07:46:20
(UTC-07:00)

SJ-11-01 - Pass Details

Date: 19 May 2017
Orbit: 685 x 701 km, 98.1° (Epoch: 23 September)

Event Time Altitude Azimuth Distance (km) Brightness Sun altitude
Exits shadow 20:51:03 16° 154° (SSE) 1,766 5.9 -13.3°
Maximum altitude 20:54:44 64° 75° (ENE) 756 4.3 -14.0°
Drops below altitude 10° 20:59:22 10° 355° (N) 2,139 7.4 -14.8°
Sets 21:01:38 0° 352° (N) 3,061 8.3 -15.1°
